Location: Hungerburg
(47.2833°N, 11.4000°E)
Time: 13:58:22
(UTC+00:00)

Daily predictions for brighter satellites

Satellite Brightness Start Highest point End
(mag) Time Altitude Azimuth Time Altitude Azimuth Time Altitude Azimuth
MetOp-B 4.3 19:43:35 10° SSE 19:48:52 66° ENE 19:54:12 10° N
Cosmos 1110 Rocket 4.3 19:45:24 10° S 19:50:26 48° ESE 19:55:32 10° NNE
X-37B 1.1 19:48:45 10° W 19:51:22 36° SSW 19:53:59 10° SE
Cosmos 2154 Rocket 4.5 19:47:14 10° N 19:53:11 45° ENE 19:59:05 10° SSE
SL-8 R/B 4.1 19:51:48 10° WNW 19:56:28 52° SSW 20:01:09 10° SE
Cosmos 2228 3.4 19:54:00 10° N 19:58:06 47° ENE 20:02:11 10° SSE
Cosmos 968 Rocket 4.5 19:56:44 10° N 20:01:31 35° ENE 20:06:18 10° SE
Cosmos 1697 Rocket 2.8 19:56:41 10° NNW 20:02:20 74° ENE 20:07:55 10° SSE
Cosmos 1980 Rocket 2.9 19:57:25 10° NNW 20:02:51 42° NE 20:08:12 10° SE
SL-16 R/B 4.3 20:01:03 10° N 20:04:44 17° NE 20:08:24 10° E
ATLAS 5 CENTAUR R/B 3.0 20:09:31 11° SE 20:10:52 13° ESE 20:12:38 10° E
Cosmos 2369 4.2 20:05:35 10° NNW 20:11:13 53° ENE 20:16:35 11° SE
Cosmos 2344 4.4 20:07:45 10° NW 20:16:31 76° NE 20:28:17 11° SE
Cosmos 1408 4.3 20:14:47 11° ESE 20:16:38 16° E 20:18:50 10° NE
Resurs 01 Rocket 2.8 20:12:38 10° SSW 20:16:50 41° W 20:21:04 10° NNW
Meteor 2-1 Rocket 4.4 20:11:35 10° N 20:17:02 59° ENE 20:22:19 11° SSE
COSMOS 2406 3.4 20:14:56 10° S 20:20:30 54° ESE 20:26:06 10° NE
Cosmos 2184 Rocket 4.1 20:17:56 10° N 20:24:08 83° W 20:30:22 10° S
H-2A R/B 3.6 20:21:41 10° N 20:25:52 41° WNW 20:30:05 10° SW
Cosmos 1833 Rocket 2.8 20:20:30 10° SSW 20:26:07 86° WNW 20:31:48 10° NNE
Cosmos 1867 3.8 20:24:30 10° NNW 20:29:59 65° NE 20:34:38 14° SE
Cosmos 1536 Rocket 4.3 20:27:31 10° SSW 20:31:46 53° WNW 20:36:03 10° N
Cosmos 1703 3.7 20:29:04 10° SSW 20:32:53 61° WNW 20:36:43 10° N
CARTOSAT-1 4.2 20:29:50 10° S 20:34:03 53° W 20:38:18 10° NNW
Cosmos 1825 4.2 20:33:23 12° ESE 20:34:46 14° E 20:36:43 10° NE
USA 245 3.4 20:32:02 10° S 20:35:54 59° WSW 20:39:02 10° NNW
Cosmos 1606 Rocket 3.5 20:31:47 10° N 20:36:09 77° E 20:39:50 14° SSE
Ariane Rocket 4.1 20:33:21 10° SSW 20:38:09 41° W 20:42:59 10° NNW
Cosmos 2322 Rocket 4.1 20:34:52 10° N 20:39:07 21° NE 20:43:21 10° E
CZ-4B R/B 3.6 20:43:13 10° NNW 20:45:32 22° WNW 20:47:50 10° WSW
USA 234 4.5 20:40:09 10° ENE 20:46:12 41° N 20:52:14 10° WNW
GP-B 4.2 20:42:38 10° NNE 20:46:33 29° E 20:49:01 18° SE
ARIANE 5 R/B 2.9 20:44:14 17° SE 20:47:26 54° ENE 20:51:45 10° N
Terra 1.8 20:44:04 16° SSE 20:47:51 75° ENE 20:52:37 10° N
SPOT 3 Rocket 4.2 20:44:39 10° S 20:49:42 51° W 20:54:48 10° NNW
SPOT 5 2.8 20:46:56 14° S 20:50:39 71° WSW 20:54:58 10° NNW
RESURS DK-1 4.5 20:50:01 10° WNW 20:53:04 20° WSW 20:56:06 10° SSW
Cosmos 2278 4.0 20:47:31 10° NNW 20:53:11 59° ENE 20:57:25 18° SE
USA 276 2.4 20:51:23 10° WNW 20:54:25 60° NNE 20:56:54 14° E
Cosmos 2341 Rocket 4.2 20:48:20 10° N 20:54:36 61° ENE 20:59:17 18° SSE
FALCON 9 DEB 3.2 20:52:32 10° WNW 20:55:47 67° NNE 20:58:00 19° ESE
Cosmos 1726 Rocket 3.5 20:53:42 10° N 20:58:03 82° W 21:01:15 18° S
Meteor 1-11 4.2 20:58:41 14° S 21:03:25 66° E 21:08:58 10° NNE
Cosmos 2082 Rocket 2.2 20:58:34 10° SSW 21:04:17 82° ESE 21:10:00 10° NNE
Okean 1-7 Rocket 4.4 21:03:32 22° SE 21:05:44 35° E 21:09:50 10° NNE
Cosmos 1633 4.5 21:05:14 14° E 21:05:46 14° E 21:07:42 10° NE
Cosmos 1486 Rocket 4.4 21:01:13 10° NNW 21:06:21 54° ENE 21:09:45 21° SE
Helios 1A Rocket 3.6 21:04:55 16° S 21:08:02 49° W 21:12:03 10° NNW
Spot 2 Rocket 4.1 21:04:02 13° S 21:08:26 51° W 21:13:26 10° NNW
ASTEX 1 3.8 21:03:51 10° NNE 21:08:43 49° E 21:11:39 22° SSE
Cosmos 1328 4.4 21:05:14 10° SSW 21:09:10 56° WNW 21:13:07 10° N
TIMED 4.4 21:07:04 13° SSW 21:10:59 77° ESE 21:15:21 10° NNE
Cosmos 2360 Rocket 3.9 21:09:14 10° N 21:13:47 24° NE 21:18:19 10° E
Cosmos 1932 4.4 21:11:57 10° SSW 21:18:07 73° ESE 21:24:28 10° NE
Cosmos 2181 Rocket 4.1 21:17:08 20° SSE 21:21:25 62° E 21:27:36 10° NNE
ERS-1 Rocket 3.9 21:22:06 14° SSW 21:26:05 41° W 21:30:51 10° NNW
X-37B 3.0 21:25:23 10° SW 21:25:27 10° SW 21:25:27 10° SW
Cosmos 1892 2.7 21:26:27 24° SSW 21:28:38 79° W 21:32:26 10° N
Cosmos 1602 Rocket 4.4 21:28:28 27° SE 21:29:57 34° E 21:33:52 10° NNE
Cosmos 1503 Rocket 4.1 21:39:32 10° NNW 21:44:50 68° ENE 21:47:32 29° SE
ALOS 2 4.0 21:44:13 19° ESE 21:46:16 28° ENE 21:50:01 10° N
Cosmos 1980 Rocket 3.3 21:41:38 10° NW 21:46:45 35° WSW 21:50:07 19° SSW
Cosmos 2219 Rocket 4.2 21:45:14 10° N 21:49:30 21° NE 21:53:46 10° E
SL-16 R/B 2.3 21:44:11 10° NNW 21:49:53 74° ENE 21:52:57 28° SE
Cosmos 2058 Rocket 4.1 21:46:39 10° NNW 21:50:48 40° W 21:53:20 21° SSW
Cosmos 1408 4.0 21:48:44 15° SW 21:51:03 31° WNW 21:54:11 10° N
Cosmos 1626 Rocket 3.4 21:50:06 32° S 21:52:06 89° ESE 21:56:30 10° N
USA 267 3.4 21:47:36 10° ENE 21:53:55 50° SE 21:59:31 13° SSW
SL-8 Rocket 4.3 21:47:55 10° NNW 21:54:02 61° W 21:58:01 22° SSW
ATLAS 5 CENTAUR R/B 1.6 21:50:56 10° SW 21:54:38 67° NW 21:58:51 10° NE
Cosmos 2058 4.2 21:53:50 23° ESE 21:54:40 25° E 21:58:07 10° NNE
SJ 16-02 1.6 21:57:30 10° NNW 22:01:54 60° ENE 22:03:35 35° SE
SL-4 R/B 2.4 22:04:44 35° E 22:04:44 35° E 22:07:12 10° ENE
Cosmos 1825 Rocket 4.4 22:04:05 31° ESE 22:05:04 35° E 22:09:02 10° NNE
Meteor 2-20 4.5 22:03:59 30° S 22:07:06 68° E 22:13:09 10° NNE
Cosmos 1825 3.0 22:08:00 26° SW 22:09:41 46° WNW 22:13:19 10° N
Cosmos 2221 4.3 22:10:14 10° NNE 22:13:42 23° ENE 22:15:26 18° ESE
Cosmos 1869 4.3 22:13:28 10° NNW 22:17:05 37° W 22:18:25 28° SW
Cosmos 2322 Rocket 2.1 22:18:13 10° NNW 22:23:56 87° WSW 22:26:28 35° SSE
Terra 4.2 22:23:38 10° WSW 22:26:09 14° W 22:28:41 10° NW
USA 234 3.5 22:22:10 10° ESE 22:28:41 72° NNE 22:35:14 10° NW
USA 276 3.8 22:27:15 10° W 22:28:42 23° W 22:28:42 23° W
Cosmos 1934 Rocket 4.2 22:25:48 10° N 22:31:49 59° ENE 22:34:46 31° SE
Meteor 2-20 Rocket 4.4 22:33:21 33° S 22:36:15 81° E 22:42:22 10° NNE
BREEZE-M DEB (TANK) 3.9 22:34:07 10° WNW 22:37:37 89° N 22:52:18 10° ESE
Cosmos 1633 3.6 22:39:00 31° WSW 22:39:55 37° WNW 22:43:10 10° N
Cosmos 1758 Rocket 4.1 22:42:25 33° SW 22:44:05 53° WNW 22:48:25 10° N
Cosmos 1238 4.3 22:44:13 65° WSW 22:44:28 69° W 22:48:04 10° N
Cosmos 2333 Rocket 2.6 22:39:11 10° NNW 22:44:54 59° ENE 22:48:05 26° SE
Cosmos 2082 Rocket 4.5 22:44:43 10° W 22:49:04 22° NW 22:53:27 10° N
COSMOS 2487 4.0 22:52:54 22° ENE 22:52:54 22° ENE 22:54:40 10° NE
Cosmos 1606 3.2 22:50:01 10° NNW 22:53:43 47° W 22:54:21 42° SW
Cosmos-2242 3.9 22:50:08 10° NNW 22:54:03 37° W 22:55:10 31° SW
ADEOS Rocket 3.6 22:53:13 31° S 22:57:09 75° WSW 23:04:58 10° NNW
Cosmos 2360 Rocket 2.2 22:52:42 10° NNW 22:58:23 73° WSW 23:00:31 39° S
ISS -2.1 23:00:48 24° E 23:00:48 24° E 23:02:24 10° ENE
Cosmos 1340 Rocket 2.7 22:58:42 61° S 22:59:21 90° N 23:03:21 10° N
Gbstr 26 Del rocket 3.0 22:59:00 28° WSW 23:01:16 83° SSE 23:06:25 10° ENE
Meteor 2-3 Rocket 4.3 23:04:49 31° SE 23:06:50 43° E 23:12:05 10° NNE
Cosmos 2333 4.2 23:02:13 10° NNW 23:08:03 86° ENE 23:10:39 35° SSE
Cosmos 1076 Rocket 4.3 23:09:44 34° ESE 23:10:39 39° E 23:14:43 10° NNE
BREEZE-M DEB (TANK) 2.8 23:12:24 54° ESE 23:12:24 54° ESE 23:17:08 10° ENE
SL-27 R/B 2.7 23:13:18 51° E 23:13:18 51° E 23:16:11 10° NNE
Meteor 2-11 Rocket 4.4 23:08:40 10° NNW 23:14:49 80° W 23:17:23 37° S
NOSS 3-2 (A) 4.0 23:13:40 31° SE 23:14:51 34° ESE 23:20:19 10° NE
Cosmos 44 3.1 23:14:09 40° SW 23:15:47 83° NW 23:20:15 10° NE
Cosmos 972 Rocket 4.2 23:11:25 10° NNW 23:16:38 67° WSW 23:18:42 39° S
Cosmos 1833 4.1 23:14:26 35° SSW 23:16:56 86° WNW 23:22:34 10° NNE
Cosmos 1782 3.6 23:17:33 10° N 23:21:22 43° ENE 23:22:20 36° ESE
ALOS 2 3.6 23:21:37 30° WSW 23:22:30 33° W 23:26:31 10° NNW
ERS-2 2.0 23:18:58 10° NNE 23:22:34 77° WNW 23:22:56 67° SW
CENTAUR R/B 3.1 23:22:31 32° SSE 23:24:13 38° ESE 23:30:26 10° NE
Cosmos 2237 Rocket 4.0 23:19:47 10° N 23:24:37 28° NE 23:29:24 10° ESE
Cosmos 1605 Rocket 4.0 23:19:04 10° N 23:25:31 90° WSW 23:28:27 35° S
Cosmos 2297 Rocket 4.0 23:29:19 15° ESE 23:31:14 17° E 23:34:47 10° ENE
COSMOS 2428 2.9 23:25:36 10° NNW 23:31:19 68° ENE 23:34:37 26° SE
Cosmos 2058 4.3 23:29:58 25° WSW 23:31:24 31° WNW 23:35:09 10° N
Cosmos 2151 3.4 23:31:03 42° SE 23:31:59 50° E 23:36:10 10° NNE
SL-16 R/B 3.8 23:29:29 10° WNW 23:33:21 19° W 23:34:48 17° WSW
Cosmos 2219 Rocket 2.1 23:28:30 10° NNW 23:34:12 85° WSW 23:36:41 36° SSE
Cosmos 1953 Rocket 4.3 23:33:03 33° WSW 23:34:28 43° WNW 23:38:42 10° N
USA 267 3.6 23:30:37 10° NE 23:37:05 65° NNW 23:43:32 10° WSW
SJ 16-02 3.4 23:37:20 10° WNW 23:39:56 15° W 23:40:31 15° WSW
ATLAS 5 CENTAUR R/B 4.3 23:37:29 10° WNW 23:40:06 16° NNW 23:42:57 10° NNE
SL-4 R/B 2.5 23:40:05 13° W 23:43:09 51° NNW 23:46:50 10° ENE
Cosmos 2322 3.6 23:37:39 10° NNW 23:43:21 79° WSW 23:45:45 36° SSE
Cosmos 1898 Rocket 3.5 23:39:27 10° NNW 23:44:40 76° ENE 23:47:02 33° SSE
Cosmos 1937 Rocket 3.8 23:44:37 10° NNW 23:49:51 62° ENE 23:52:46 26° SE
Cosmos 2221 3.3 23:47:19 10° NNW 23:51:22 38° W 23:52:14 34° WSW
COSMOS 2455 3.8 23:46:18 10° NNW 23:52:07 47° NE 23:57:53 10° ESE
PSLV R/B 4.1 23:49:15 10° N 23:53:55 57° WNW 23:55:36 36° SW
Cosmos 1184 Rocket 4.1 23:54:35 10° N 23:57:16 28° ENE 23:57:49 26° E
